UAE456 YSCB-YMML

Flight info

Callsign UAE456
Flight time 1h 19m
Altitude 30000
Route CB Q215 TANTA Q29 ML
Aircraft A388/J-SADE2E3FGHIJ3J4J5M1RWXY/LB1D1

Departure

Time 2026-05-04 10:58
Airport Canberra Airport (YSCB)

Arrival

Time 2026-05-04 12:17
Airport Melbourne Airport (YMML)
Time Latitude Longitude Altitude Speed Heading
2026-05-04 10:37 -35.30670 149.19113 1968 ft 0 kts 228°
2026-05-04 10:46 -35.30664 149.19119 1876 ft 2 kts 220°
2026-05-04 10:47 -35.30656 149.19125 1877 ft 1 kts 206°
2026-05-04 10:47 -35.30647 149.19127 1877 ft 1 kts 192°
2026-05-04 10:47 -35.30639 149.19127 1877 ft 1 kts 178°
2026-05-04 10:47 -35.30630 149.19125 1878 ft 1 kts 164°
2026-05-04 10:49 -35.30595 149.19094 1878 ft 0 kts 134°
2026-05-04 10:49 -35.30598 149.19097 1878 ft 2 kts 134°
2026-05-04 10:50 -35.30615 149.19121 1878 ft 5 kts 126°
2026-05-04 10:51 -35.31296 149.19239 1878 ft 12 kts 181°
2026-05-04 10:52 -35.31412 149.19236 1877 ft 21 kts 181°
2026-05-04 10:52 -35.31587 149.19234 1877 ft 29 kts 181°
2026-05-04 10:52 -35.31806 149.19235 1875 ft 33 kts 178°
2026-05-04 10:54 -35.31986 149.19295 1876 ft 0 kts 123°
2026-05-04 10:57 -35.31987 149.19296 1876 ft 1 kts 123°
2026-05-04 10:57 -35.31999 149.19402 1881 ft 14 kts 54°
2026-05-04 10:57 -35.31913 149.19443 1877 ft 14 kts
2026-05-04 10:57 -35.31641 149.19445 1878 ft 79 kts 360°
2026-05-04 10:58 -35.30861 149.19442 1877 ft 139 kts 360°
2026-05-04 10:58 -35.29805 149.19453 2215 ft 151 kts 359°
2026-05-04 10:58 -35.28757 149.19507 2787 ft 155 kts
2026-05-04 10:58 -35.27659 149.19641 3330 ft 157 kts
2026-05-04 10:59 -35.26553 149.19795 3785 ft 166 kts
2026-05-04 10:59 -35.25337 149.19945 4047 ft 184 kts
2026-05-04 10:59 -35.23993 149.20099 4272 ft 208 kts 359°
2026-05-04 10:59 -35.22492 149.20261 4837 ft 226 kts 360°
2026-05-04 11:00 -35.20844 149.20445 5383 ft 249 kts
2026-05-04 11:01 -35.08189 149.21883 10768 ft 304 kts
2026-05-04 11:02 -35.06038 149.22142 11333 ft 313 kts
2026-05-04 11:02 -35.03866 149.22411 12152 ft 315 kts
2026-05-04 11:05 -34.99771 149.03928 20932 ft 435 kts 183°
2026-05-04 11:06 -35.02815 149.03956 21417 ft 436 kts 187°
2026-05-04 11:06 -35.05847 149.03678 21898 ft 437 kts 193°
2026-05-04 11:06 -35.08848 149.03096 22387 ft 437 kts 197°
2026-05-04 11:06 -35.11832 149.02333 22898 ft 439 kts 199°
2026-05-04 11:08 -35.33001 148.96167 24000 ft 449 kts 200°
2026-05-04 11:10 -35.54291 148.89950 23987 ft 451 kts 200°
2026-05-04 11:12 -35.73266 148.79737 23983 ft 409 kts 244°
2026-05-04 11:12 -35.74831 148.76824 23974 ft 406 kts 245°
2026-05-04 11:12 -35.76384 148.73915 23987 ft 408 kts 245°
2026-05-04 11:12 -35.77969 148.71019 23973 ft 408 kts 244°
2026-05-04 11:13 -35.79579 148.68138 23988 ft 408 kts 244°
2026-05-04 11:13 -35.81204 148.65267 23990 ft 409 kts 244°
2026-05-04 11:13 -35.82837 148.62394 23978 ft 409 kts 244°
2026-05-04 11:13 -35.84468 148.59526 23980 ft 409 kts 244°
2026-05-04 11:14 -35.85018 148.58558 23993 ft 409 kts 244°
2026-05-04 11:16 -36.00710 148.30713 24000 ft 410 kts 245°
2026-05-04 11:16 -36.02336 148.27808 23993 ft 411 kts 245°
2026-05-04 11:16 -36.03961 148.24913 24005 ft 410 kts 245°
2026-05-04 11:17 -36.05587 148.22015 24001 ft 410 kts 245°
2026-05-04 11:17 -36.07213 148.19110 24041 ft 409 kts 245°
2026-05-04 11:19 -36.18508 147.98889 24001 ft 413 kts 245°
2026-05-04 11:19 -36.20163 147.95903 24007 ft 428 kts 245°
2026-05-04 11:19 -36.21867 147.92831 24005 ft 436 kts 244°
2026-05-04 11:19 -36.23590 147.89749 24010 ft 434 kts 244°
2026-05-04 11:20 -36.25305 147.86683 24007 ft 433 kts 244°
2026-05-04 11:20 -36.27017 147.83613 24019 ft 434 kts 244°
2026-05-04 11:20 -36.28731 147.80528 24004 ft 433 kts 244°
2026-05-04 11:20 -36.30439 147.77452 24006 ft 432 kts 245°
2026-05-04 11:22 -36.42319 147.55926 24005 ft 433 kts 244°
2026-05-04 11:22 -36.44019 147.52833 24002 ft 433 kts 244°
2026-05-04 11:23 -36.45716 147.49741 24003 ft 433 kts 245°
2026-05-04 11:23 -36.47412 147.46647 23997 ft 433 kts 245°
2026-05-04 11:24 -36.57562 147.28091 24002 ft 432 kts 245°
2026-05-04 11:25 -36.59250 147.24986 23987 ft 433 kts 244°
2026-05-04 11:25 -36.60917 147.21930 23988 ft 431 kts 244°
2026-05-04 11:25 -36.62601 147.18837 23993 ft 431 kts 244°
2026-05-04 11:26 -36.65968 147.12635 23985 ft 432 kts 245°
2026-05-04 11:27 -36.77754 146.90868 23993 ft 431 kts 244°
2026-05-04 11:28 -36.79430 146.87759 23987 ft 431 kts 244°
2026-05-04 11:28 -36.81101 146.84652 23990 ft 433 kts 244°
2026-05-04 11:28 -36.82776 146.81536 23995 ft 432 kts 244°
2026-05-04 11:28 -36.84451 146.78424 23987 ft 431 kts 244°
2026-05-04 11:29 -36.86124 146.75307 23990 ft 432 kts 244°
2026-05-04 11:29 -36.87799 146.72185 23996 ft 432 kts 244°
2026-05-04 11:29 -36.89469 146.69074 23992 ft 431 kts 244°
2026-05-04 11:29 -36.91138 146.65957 23989 ft 432 kts 244°
2026-05-04 11:31 -37.02054 146.45569 23984 ft 352 kts 246°
2026-05-04 11:33 -37.09016 146.27913 23162 ft 293 kts 293°
2026-05-04 11:33 -37.08202 146.25730 23706 ft 265 kts 308°
2026-05-04 11:33 -37.07058 146.24020 23901 ft 251 kts 320°
2026-05-04 11:34 -37.06141 146.23109 23966 ft 249 kts 327°
2026-05-04 11:34 -37.04598 146.22122 23980 ft 251 kts 338°
2026-05-04 11:34 -37.02887 146.21633 23980 ft 255 kts 350°
2026-05-04 11:34 -37.01092 146.21711 23979 ft 264 kts
2026-05-04 11:35 -36.99332 146.22400 23974 ft 275 kts 16°
2026-05-04 11:35 -36.97694 146.23760 23985 ft 292 kts 32°
2026-05-04 11:35 -36.96369 146.25796 23978 ft 313 kts 50°
2026-05-04 11:35 -36.95495 146.28349 23981 ft 321 kts 58°
2026-05-04 11:36 -36.94684 146.30949 23990 ft 321 kts 57°
2026-05-04 11:36 -36.93856 146.33545 23991 ft 321 kts 57°
2026-05-04 11:36 -36.93026 146.36130 23994 ft 321 kts 57°
2026-05-04 11:36 -36.92192 146.38709 23990 ft 319 kts 57°
2026-05-04 11:37 -36.91361 146.41288 23997 ft 321 kts 57°
2026-05-04 11:37 -36.90620 146.43946 23995 ft 331 kts 69°
2026-05-04 11:37 -36.90538 146.46897 23991 ft 351 kts 92°
2026-05-04 11:37 -36.91337 146.49831 23999 ft 366 kts 116°
2026-05-04 11:38 -36.92966 146.52309 23992 ft 373 kts 141°
2026-05-04 11:38 -36.95200 146.53933 23987 ft 371 kts 165°
2026-05-04 11:38 -36.97703 146.54464 23993 ft 360 kts 189°
2026-05-04 11:38 -37.00084 146.53867 23992 ft 341 kts 214°
2026-05-04 11:39 -37.01982 146.52307 23982 ft 315 kts 239°
2026-05-04 11:39 -37.03149 146.50143 23990 ft 292 kts 258°
2026-05-04 11:40 -37.07366 146.35942 23977 ft 294 kts 259°
2026-05-04 11:41 -37.08107 146.33557 23967 ft 290 kts 265°
2026-05-04 11:41 -37.08320 146.31146 24007 ft 273 kts 284°
2026-05-04 11:41 -37.07941 146.28891 23980 ft 259 kts 298°
2026-05-04 11:41 -37.07139 146.26953 23978 ft 251 kts 310°
2026-05-04 11:42 -37.05983 146.25343 23981 ft 248 kts 321°
2026-05-04 11:42 -37.04544 146.24151 23980 ft 249 kts 333°
2026-05-04 11:42 -37.02893 146.23452 23980 ft 253 kts 345°
2026-05-04 11:42 -37.01115 146.23314 23979 ft 260 kts 358°
2026-05-04 11:43 -36.99317 146.23796 23983 ft 271 kts 11°
2026-05-04 11:43 -36.97619 146.24937 23984 ft 286 kts 27°
2026-05-04 11:43 -36.96184 146.26756 23984 ft 305 kts 44°
2026-05-04 11:43 -36.95200 146.29185 23990 ft 321 kts 58°
2026-05-04 11:44 -36.94395 146.31799 23974 ft 323 kts 58°
2026-05-04 11:44 -36.93575 146.34411 23988 ft 322 kts 57°
2026-05-04 11:44 -36.92747 146.37013 23996 ft 320 kts 57°
2026-05-04 11:44 -36.91922 146.39590 23994 ft 319 kts 57°
2026-05-04 11:45 -36.91091 146.42169 23993 ft 320 kts 57°
2026-05-04 11:45 -36.90513 146.44916 23994 ft 337 kts 76°
2026-05-04 11:45 -36.90713 146.47900 23989 ft 357 kts 100°
2026-05-04 11:45 -36.91805 146.50737 23998 ft 370 kts 125°
2026-05-04 11:46 -36.93668 146.52969 23993 ft 374 kts 149°
2026-05-04 11:46 -36.96032 146.54250 23988 ft 369 kts 173°
2026-05-04 11:46 -36.98544 146.54405 23991 ft 354 kts 198°
2026-05-04 11:46 -37.00798 146.53461 23986 ft 332 kts 223°
2026-05-04 11:47 -37.02462 146.51646 23978 ft 306 kts 248°
2026-05-04 11:47 -37.03402 146.49369 23991 ft 288 kts 264°
2026-05-04 11:47 -37.03973 146.46983 23980 ft 287 kts 263°
2026-05-04 11:47 -37.04627 146.44611 23992 ft 289 kts 261°
2026-05-04 11:48 -37.05334 146.42290 23982 ft 290 kts 260°
2026-05-04 11:48 -37.06087 146.39917 23982 ft 290 kts 259°
2026-05-04 11:48 -37.06832 146.37596 23972 ft 292 kts 259°
2026-05-04 11:48 -37.07590 146.35235 23972 ft 293 kts 259°
2026-05-04 11:49 -37.08155 146.32839 23986 ft 281 kts 272°
2026-05-04 11:49 -37.08207 146.30458 23995 ft 269 kts 286°
2026-05-04 11:49 -37.07789 146.28243 23978 ft 256 kts 298°
2026-05-04 11:49 -37.06970 146.26308 23979 ft 249 kts 310°
2026-05-04 11:50 -37.05817 146.24715 23980 ft 247 kts 322°
2026-05-04 11:50 -37.04393 146.23522 23982 ft 247 kts 333°
2026-05-04 11:50 -37.02763 146.22789 23980 ft 251 kts 344°
2026-05-04 11:50 -37.01004 146.22576 23978 ft 257 kts 356°
2026-05-04 11:51 -36.99212 146.22934 23980 ft 266 kts
2026-05-04 11:51 -36.97481 146.23898 23988 ft 280 kts 22°
2026-05-04 11:51 -36.95946 146.25490 23984 ft 296 kts 37°
2026-05-04 11:51 -36.94775 146.27703 23987 ft 316 kts 55°
2026-05-04 11:52 -36.93963 146.30295 23984 ft 321 kts 58°
2026-05-04 11:52 -36.93155 146.32891 23976 ft 320 kts 58°
2026-05-04 11:52 -36.92336 146.35473 23993 ft 320 kts 57°
2026-05-04 11:52 -36.91513 146.38048 23985 ft 318 kts 57°
2026-05-04 11:53 -36.90689 146.40612 23991 ft 318 kts 57°
2026-05-04 11:53 -36.89888 146.43190 23990 ft 324 kts 64°
2026-05-04 11:53 -36.89553 146.46009 23981 ft 343 kts 83°
2026-05-04 11:53 -36.89996 146.48988 23999 ft 359 kts 106°
2026-05-04 11:55 -37.05080 146.48877 23987 ft 403 kts 250°
2026-05-04 11:55 -37.06088 146.45615 23980 ft 403 kts 265°
2026-05-04 11:56 -37.06457 146.42139 23981 ft 406 kts 271°
2026-05-04 11:56 -37.06944 146.38603 23977 ft 418 kts 262°
2026-05-04 11:56 -37.07946 146.35148 23972 ft 427 kts 253°
2026-05-04 11:56 -37.09337 146.31839 23983 ft 433 kts 248°
2026-05-04 11:57 -37.10927 146.28642 23975 ft 432 kts 245°
2026-05-04 11:57 -37.12592 146.25493 23969 ft 434 kts 244°
2026-05-04 11:57 -37.14276 146.22349 23971 ft 434 kts 244°
2026-05-04 11:57 -37.15954 146.19214 23799 ft 429 kts 245°
2026-05-04 11:58 -37.17605 146.16114 23190 ft 426 kts 245°
2026-05-04 11:58 -37.19216 146.13071 22500 ft 423 kts 244°
2026-05-04 11:58 -37.20840 146.09993 21796 ft 419 kts 244°
2026-05-04 11:58 -37.22436 146.06967 21122 ft 414 kts 244°
2026-05-04 11:59 -37.24018 146.03963 20411 ft 411 kts 244°
2026-05-04 11:59 -37.25575 146.01011 19930 ft 401 kts 244°
2026-05-04 11:59 -37.27095 145.98108 19238 ft 397 kts 243°
2026-05-04 11:59 -37.28609 145.95221 18586 ft 394 kts 243°
2026-05-04 12:00 -37.30101 145.92375 17956 ft 388 kts 243°
2026-05-04 12:00 -37.31575 145.89565 17258 ft 383 kts 243°
2026-05-04 12:00 -37.33041 145.86770 16515 ft 382 kts 242°
2026-05-04 12:00 -37.34489 145.84018 16126 ft 371 kts 243°
2026-05-04 12:01 -37.35891 145.81359 15711 ft 361 kts 243°
2026-05-04 12:01 -37.37265 145.78743 15219 ft 356 kts 243°
2026-05-04 12:02 -37.45091 145.63770 12289 ft 326 kts 243°
2026-05-04 12:03 -37.46364 145.61435 11830 ft 322 kts 240°
2026-05-04 12:03 -37.47694 145.59170 11374 ft 320 kts 239°
2026-05-04 12:03 -37.49015 145.56954 11139 ft 311 kts 239°
2026-05-04 12:03 -37.50282 145.54824 11002 ft 298 kts 239°
2026-05-04 12:04 -37.51492 145.52775 10884 ft 286 kts 240°
2026-05-04 12:04 -37.52663 145.50768 10602 ft 282 kts 240°
2026-05-04 12:04 -37.53814 145.48779 10240 ft 279 kts 240°
2026-05-04 12:04 -37.54956 145.46799 9862 ft 280 kts 240°
2026-05-04 12:05 -37.56100 145.44819 9717 ft 279 kts 240°
2026-05-04 12:05 -37.57241 145.42843 9427 ft 277 kts 240°
2026-05-04 12:05 -37.58367 145.40903 9148 ft 272 kts 240°
2026-05-04 12:05 -37.59478 145.38987 8939 ft 272 kts 240°
2026-05-04 12:06 -37.60605 145.37038 8909 ft 276 kts 240°
2026-05-04 12:06 -37.61737 145.35075 8909 ft 278 kts 240°
2026-05-04 12:06 -37.62877 145.33101 8906 ft 277 kts 240°
2026-05-04 12:06 -37.64008 145.31143 8903 ft 276 kts 241°
2026-05-04 12:07 -37.65142 145.29178 8906 ft 277 kts 240°
2026-05-04 12:07 -37.66263 145.27237 8900 ft 277 kts 240°
2026-05-04 12:07 -37.67392 145.25276 8898 ft 275 kts 241°
2026-05-04 12:07 -37.68513 145.23327 8905 ft 273 kts 241°
2026-05-04 12:08 -37.69628 145.21391 8901 ft 272 kts 241°
2026-05-04 12:08 -37.70743 145.19454 8892 ft 273 kts 241°
2026-05-04 12:08 -37.71857 145.17513 8893 ft 273 kts 241°
2026-05-04 12:08 -37.72972 145.15571 8894 ft 273 kts 241°
2026-05-04 12:09 -37.74088 145.13626 8828 ft 269 kts 241°
2026-05-04 12:09 -37.75194 145.11698 8264 ft 274 kts 241°
2026-05-04 12:09 -37.76315 145.09741 7722 ft 274 kts 241°
2026-05-04 12:09 -37.77433 145.07794 7195 ft 272 kts 242°
2026-05-04 12:10 -37.78535 145.05877 6928 ft 263 kts 242°
2026-05-04 12:10 -37.79582 145.04063 6800 ft 249 kts 242°
2026-05-04 12:10 -37.80577 145.02337 6717 ft 236 kts 243°
2026-05-04 12:10 -37.81351 145.00608 6625 ft 217 kts 257°
2026-05-04 12:11 -37.81754 144.98854 6536 ft 199 kts 267°
2026-05-04 12:11 -37.82012 144.97273 6438 ft 168 kts 267°
2026-05-04 12:11 -37.82259 144.95896 6016 ft 157 kts 268°
2026-05-04 12:11 -37.82488 144.94586 5658 ft 144 kts 268°
2026-05-04 12:12 -37.82658 144.93387 5236 ft 136 kts 273°
2026-05-04 12:12 -37.82791 144.92202 4734 ft 136 kts 273°
2026-05-04 12:12 -37.83015 144.90288 3847 ft 137 kts 274°
2026-05-04 12:12 -37.83246 144.88238 2929 ft 131 kts 282°
2026-05-04 12:13 -37.82957 144.87224 2378 ft 121 kts 317°
2026-05-04 12:14 -37.77159 144.85712 1510 ft 123 kts 349°
2026-05-04 12:15 -37.76324 144.85557 1544 ft 125 kts 350°
2026-05-04 12:15 -37.75472 144.85401 1549 ft 122 kts 349°
2026-05-04 12:15 -37.74620 144.85243 1466 ft 127 kts 349°
2026-05-04 12:15 -37.73753 144.85078 1260 ft 126 kts 351°
2026-05-04 12:16 -37.73177 144.84964 1150 ft 125 kts 353°
2026-05-04 12:16 -37.72317 144.84782 970 ft 131 kts 352°
2026-05-04 12:16 -37.71441 144.84614 832 ft 122 kts 354°
2026-05-04 12:16 -37.70650 144.84461 779 ft 119 kts 355°
2026-05-04 12:17 -37.69832 144.84322 627 ft 118 kts 354°
2026-05-04 12:17 -37.69042 144.84175 469 ft 108 kts 353°
2026-05-04 12:17 -37.68354 144.84054 352 ft 88 kts 351°
2026-05-04 12:17 -37.68022 144.84006 356 ft 23 kts
2026-05-04 12:18 -37.67892 144.84078 357 ft 22 kts 75°
2026-05-04 12:18 -37.67876 144.84288 360 ft 39 kts 69°
2026-05-04 12:18 -37.67820 144.84459 360 ft 42 kts 68°
2026-05-04 12:18 -37.67726 144.84697 364 ft 31 kts 46°